RH
3 3 3 3 4 4 4 4 5 5 6 7 6 6 7 7 8 7 7 6 6 6 6 6 7 11 11 11 15 15 19 35 45 44 44 47 47 45 40 34 31 31 31 32 32 33 34 34 34 35 36 38 39 39 40 40 40 40 40 40 39 38 36 34 31 26 20 17 20 26 32 36 40 43 45 48 50 52 53 54 54 53 53 53 55 56
3 3 3 4 4 4 4 4 5 6 6 7 6 6 7 8 8 8 7 7 6 6 7 6 8 13 12 8 13 15 20 33 41 41 42 45 47 47 44 40 37 36 37 38 38 39 39 39 40 40 40 40 40 41 41 42 43 44 45 45 45 45 43 40 37 35 30 25 22 26 33 38 42 45 46 48 49 50 51 52 53 53 54 55 56 57
3 4 3 4 4 4 5 4 5 6 6 7 8 8 9 9 8 8 8 7 7 7 8 7 9 15 11 8 14 15 17 29 34 35 37 41 46 48 46 45 45 46 47 46 46 46 45 45 44 44 45 46 46 46 47 48 50 51 52 52 51 50 48 46 44 42 40 37 33 31 34 38 42 45 46 48 50 52 53 54 55 55 56 55 54 55
3 4 4 4 4 4 5 5 5 6 6 8 9 9 9 9 9 9 8 8 8 7 10 8 7 15 15 10 14 15 16 26 33 35 37 41 47 50 51 51 52 53 54 53 53 52 51 51 51 51 52 53 56 58 59 60 60 59 58 57 56 54 51 50 48 47 45 45 45 44 43 43 43 45 46 47 49 51 53 56 58 58 58 57 56 56
4 4 5 6 7 6 5 6 6 6 7 9 9 10 9 9 10 9 8 8 8 9 11 9 9 14 15 12 14 16 18 26 33 35 38 44 49 53 58 61 64 66 65 63 61 59 60 61 64 66 68 70 72 73 74 74 74 72 71 68 64 61 58 56 54 53 51 50 52 54 55 56 55 54 55 54 54 56 57 58 60 62 63 63 63 63
5 5 7 9 8 7 6 6 7 8 9 10 9 10 10 10 9 8 9 8 8 9 8 12 20 19 13 15 16 15 19 24 27 31 36 44 49 53 58 63 68 73 76 78 77 77 78 79 81 83 85 86 86 87 86 86 87 87 86 84 79 74 70 67 64 62 60 59 59 60 61 63 64 64 65 65 64 64 65 65 65 66 67 68 68 69
6 6 8 10 9 8 8 7 9 9 9 10 10 11 10 9 9 7 8 9 9 11 9 14 28 25 16 16 15 13 18 21 23 28 34 37 42 47 54 59 66 73 78 82 85 87 88 88 88 89 90 91 91 91 92 92 93 94 95 94 91 87 84 80 77 73 69 66 66 66 66 67 67 67 68 68 68 67 67 68 68 68 69 70 70 71
7 7 9 10 10 9 9 9 9 9 11 12 11 11 9 8 8 6 9 11 10 12 12 15 27 30 22 16 14 14 17 20 21 26 32 34 38 43 51 59 68 75 79 80 82 83 84 83 82 82 82 83 84 86 87 88 89 89 90 90 89 88 88 87 84 83 80 76 73 73 72 71 71 69 68 68 68 68 68 69 70 71 71 72 72 72
8 9 10 10 10 9 10 10 10 10 12 12 11 10 7 7 7 8 11 11 10 14 14 14 23 31 23 14 15 17 16 19 19 20 24 30 37 44 53 62 70 77 79 80 80 79 78 78 76 75 72 69 68 69 72 73 73 71 69 69 71 73 74 76 77 78 79 78 77 77 76 76 76 75 73 71 70 69 69 69 69 71 72 72 73 73
10 10 11 11 10 10 10 10 11 11 12 13 11 8 5 7 7 9 12 9 10 16 13 11 20 31 27 15 14 18 18 20 21 22 28 36 48 58 65 71 75 79 80 79 79 77 75 75 71 67 63 56 50 48 50 51 50 47 45 44 47 49 51 54 57 60 62 64 65 66 68 71 73 75 76 76 75 74 72 71 69 69 70 71 72 71
11 11 11 11 11 11 11 11 11 11 13 13 9 6 6 7 6 11 12 6 11 18 13 11 16 29 38 27 18 24 26 28 30 33 40 49 63 74 79 82 82 80 78 76 75 73 73 71 62 53 46 39 31 27 27 26 24 22 21 22 24 25 26 28 32 37 41 44 46 47 49 52 54 58 62 65 69 72 73 73 73 72 71 71 70 70
12 12 11 12 12 12 11 11 11 11 14 12 8 6 6 7 8 12 13 12 19 22 15 14 20 34 47 38 28 32 35 37 42 48 56 65 77 83 85 84 80 78 77 75 74 72 69 60 45 34 27 20 16 14 14 12 11 10 10 12 13 14 15 16 19 23 27 30 32 34 35 37 38 39 42 44 47 52 55 58 63 67 70 72 72 72
13 12 12 12 11 13 11 10 10 11 13 12 8 9 14 24 28 26 31 34 30 24 17 22 34 42 45 38 35 40 42 46 56 68 79 86 88 87 83 79 77 80 83 81 77 69 55 39 25 19 15 12 10 10 10 9 8 8 9 12 14 15 16 19 22 25 27 29 29 30 30 30 31 31 32 32 32 33 35 38 42 47 53 59 63 67
15 13 12 12 12 13 11 10 11 12 15 15 12 16 25 42 51 48 52 50 35 26 23 30 45 44 33 32 38 42 45 52 65 80 90 92 87 82 76 72 75 85 89 82 69 51 35 23 17 15 13 10 10 10 11 10 10 10 12 15 18 18 19 23 26 28 31 33 35 36 33 32 31 31 31 29 28 27 27 28 29 31 34 38 43 48
18 18 14 12 12 12 11 11 13 13 16 16 14 19 25 36 49 53 55 48 38 40 37 33 40 37 29 35 41 42 48 60 73 84 86 83 80 76 69 62 64 68 65 58 46 30 21 17 14 14 15 15 16 17 18 16 13 13 15 17 18 19 21 23 24 25 27 31 37 41 39 38 36 35 34 33 31 29 27 26 24 24 26 28 31 34
16 17 14 12 11 11 10 10 12 12 14 15 17 20 24 31 41 47 49 42 45 64 63 42 34 33 34 39 40 45 58 73 80 79 76 77 75 70 61 50 44 36 29 27 23 16 15 17 20 25 29 30 31 35 38 37 36 38 37 30 22 18 20 22 22 21 22 24 31 38 42 43 42 41 39 38 37 35 32 29 26 24 24 24 26 28
15 14 12 12 9 10 11 10 13 13 12 18 23 23 25 32 42 53 56 47 53 73 66 40 34 38 40 44 50 61 71 74 74 71 72 73 66 60 54 46 40 35 29 23 19 21 29 35 40 46 49 51 53 57 60 64 69 73 68 55 40 26 20 20 21 21 21 22 26 33 39 43 45 45 43 42 41 39 36 32 29 29 27 26 25 24
17 14 11 10 8 9 10 9 12 13 15 21 26 27 27 31 40 56 65 62 67 79 63 40 42 46 46 54 65 71 71 70 71 73 71 66 62 62 61 56 50 41 31 25 29 40 49 53 56 59 63 65 67 71 77 83 89 89 82 75 66 52 36 26 23 23 26 29 33 37 44 50 52 51 48 47 45 43 38 33 29 30 30 29 29 28
18 17 11 9 9 8 8 11 12 14 18 21 25 31 34 39 45 53 63 67 72 83 73 53 47 49 52 58 64 70 77 80 80 78 72 66 68 72 67 57 43 29 27 36 48 55 57 59 64 68 72 75 78 86 93 97 97 93 87 83 82 77 65 49 39 37 38 42 46 49 54 60 61 59 55 52 50 47 41 34 29 28 28 27 28 29
18 21 14 7 8 8 8 11 12 14 16 17 25 35 39 48 56 56 61 63 67 82 86 73 62 57 57 62 70 81 87 84 81 77 71 69 72 71 59 43 29 28 41 54 59 60 61 65 68 71 80 88 94 98 101 101 98 91 87 88 90 88 81 71 66 64 63 64 64 61 61 63 63 62 59 57 57 53 46 41 36 33 31 29 28 28
17 22 17 8 7 9 10 13 15 19 21 22 29 35 39 49 57 61 62 59 67 85 93 91 81 66 64 73 79 82 81 77 76 72 67 67 67 56 38 27 30 43 56 60 61 66 70 73 73 77 88 98 101 100 101 101 95 87 85 90 92 89 84 83 86 86 84 80 77 72 70 69 67 65 61 59 60 58 54 49 45 43 40 37 34 33
16 19 16 9 8 9 10 14 19 22 24 29 35 41 51 61 66 77 80 69 75 91 95 98 95 80 76 76 70 71 76 74 68 63 62 62 52 36 25 29 45 57 61 61 66 74 78 81 85 89 96 101 101 100 99 97 92 87 86 86 85 84 84 87 88 86 84 82 79 76 75 73 72 72 69 67 64 60 57 54 52 51 49 45 42 41
15 16 13 10 10 12 13 17 22 24 25 30 38 47 60 68 71 87 95 86 88 93 88 94 96 80 69 65 63 71 74 65 57 55 56 50 34 25 31 44 54 59 60 63 70 76 79 86 94 98 99 99 98 97 95 93 92 91 89 85 82 82 83 84 84 83 83 82 79 76 73 70 69 70 71 72 70 66 63 62 61 59 56 53 49 47
16 17 15 10 9 11 14 20 23 21 20 26 36 46 57 67 76 88 93 93 99 94 88 99 94 67 54 61 67 68 62 54 49 48 45 35 26 31 44 54 57 58 60 65 71 73 77 89 98 100 100 98 95 94 93 95 97 95 90 84 83 85 87 88 89 90 90 86 81 76 72 68 67 67 68 70 71 71 71 69 67 64 61 59 56 53
15 20 19 15 18 20 18 21 22 19 20 29 40 50 60 72 83 88 89 96 97 85 87 105 96 68 59 63 60 53 51 50 46 41 35 29 33 44 53 55 56 58 64 72 76 77 83 94 100 100 101 98 95 94 96 100 101 97 90 87 88 91 94 96 96 95 93 90 87 85 82 78 76 76 75 73 72 72 71 68 65 63 63 63 62 59
14 23 25 23 31 38 35 32 31 30 33 39 49 61 69 77 86 90 94 100 95 84 90 102 94 79 68 56 44 41 48 52 47 36 30 33 44 54 56 55 56 61 74 85 89 89 94 99 100 100 99 97 96 98 100 100 99 94 91 91 93 95 98 99 97 94 93 91 90 89 86 85 85 84 82 78 75 72 69 67 66 65 67 68 66 62
15 25 28 22 23 32 35 31 31 38 44 48 59 70 72 78 92 99 98 99 99 96 95 91 90 90 73 46 34 39 50 56 48 35 36 46 53 55 56 57 59 69 85 96 99 99 100 100 98 96 96 97 100 100 99 97 94 92 92 92 92 94 98 99 97 94 93 93 92 88 85 85 87 87 85 81 77 75 73 72 72 73 71 68 64 62
15 23 25 18 14 21 26 25 30 41 47 52 62 68 68 77 93 100 100 99 100 102 96 81 80 82 60 35 34 45 55 57 46 39 48 56 55 55 57 55 59 76 93 100 100 100 101 100 96 95 97 100 100 98 96 94 93 93 93 90 89 91 94 97 98 97 96 96 93 88 86 87 88 88 86 83 81 81 80 78 76 74 71 67 65 65
14 19 17 13 13 17 21 25 31 36 39 45 51 55 63 77 90 98 101 100 99 102 96 77 65 58 42 34 42 49 50 50 49 50 55 57 55 55 54 55 67 86 98 100 100 100 102 100 98 99 101 99 96 95 93 91 92 95 94 91 90 90 90 93 94 92 94 96 94 93 93 93 92 88 85 85 84 83 83 82 79 76 73 71 69 67
15 15 14 13 13 14 19 25 27 28 30 35 44 57 71 84 94 100 100 98 95 88 74 58 47 38 33 40 49 45 42 51 61 60 56 56 55 54 57 67 83 97 100 100 100 101 101 101 100 100 99 95 93 93 92 91 95 98 97 95 92 88 89 93 91 88 90 93 94 97 98 96 91 86 84 86 87 86 86 85 81 79 75 71 68 67
15 13 13 14 12 14 21 22 19 23 27 32 47 63 71 82 97 101 96 92 82 62 44 38 37 33 34 44 48 41 44 62 71 64 58 59 55 53 63 80 93 100 101 99 100 101 100 101 100 99 97 95 94 94 94 97 99 100 99 97 92 87 88 92 91 91 93 95 96 98 95 89 83 78 76 81 86 88 90 86 81 76 69 64 64 68
15 13 13 14 14 15 19 20 16 19 27 39 53 54 51 73 98 99 88 77 59 44 36 36 42 48 49 50 46 43 52 68 73 66 60 61 55 53 67 87 97 99 99 99 100 100 100 100 99 98 97 96 96 97 99 100 100 100 100 98 93 89 88 88 88 91 94 97 99 96 91 84 76 71 69 75 83 86 85 80 72 67 61 59 63 66
15 14 13 18 23 18 15 19 17 19 29 43 50 47 53 79 94 84 70 52 35 35 41 43 51 55 50 50 55 59 63 69 71 66 63 66 68 71 81 94 100 98 97 100 101 99 100 100 99 100 98 98 99 99 100 101 101 101 101 97 94 91 88 85 87 90 91 95 98 95 89 80 71 70 73 78 84 83 77 71 65 60 59 58 59 60
15 15 15 25 35 28 18 15 14 22 35 39 43 56 76 93 87 63 46 31 20 26 34 41 48 47 47 62 76 77 72 70 67 61 62 74 88 96 98 98 100 99 98 100 100 99 100 100 100 99 98 100 100 98 99 101 101 101 98 94 92 90 89 89 89 89 89 94 98 96 89 78 70 76 84 86 89 85 74 67 63 59 58 55 53 55
15 17 19 29 40 35 25 28 30 31 34 36 51 72 83 81 62 36 20 15 16 26 36 44 49 52 64 78 82 78 76 73 62 52 59 77 88 96 103 102 100 100 99 99 100 99 99 100 100 99 98 100 99 96 98 100 98 96 93 92 93 91 91 92 91 91 91 92 94 93 86 77 74 82 91 92 90 84 74 68 62 55 54 52 50 54
17 21 25 33 40 33 36 55 58 42 35 46 68 79 70 53 35 23 18 15 20 38 52 59 63 71 80 83 80 82 82 75 59 47 55 70 70 74 92 102 103 102 100 101 101 99 99 100 100 100 100 102 100 97 99 100 97 95 92 93 98 97 96 97 96 96 95 91 91 89 81 75 77 87 94 90 82 76 72 67 57 49 49 49 50 56
20 24 29 33 37 39 50 64 56 38 39 55 66 68 60 42 26 28 33 28 32 50 66 75 83 86 86 85 86 87 84 77 64 50 55 67 61 57 72 90 99 103 100 99 100 100 100 100 100 102 101 100 101 100 100 100 99 98 96 96 100 100 99 100 99 99 98 91 89 87 80 77 83 89 89 80 71 70 70 61 49 43 46 50 54 62
22 26 31 30 32 43 60 74 69 55 52 58 57 50 43 28 17 28 42 41 41 51 62 80 94 91 85 88 91 92 91 89 81 67 68 73 64 55 60 70 86 98 101 101 102 100 100 98 99 102 102 101 102 101 100 101 100 100 100 100 101 100 99 100 100 100 99 94 89 86 80 80 87 90 86 77 69 66 62 53 45 45 49 55 62 69
23 27 31 29 30 38 55 77 82 63 50 56 54 35 24 19 21 39 54 46 35 37 56 83 97 94 92 95 96 99 101 100 97 88 85 84 74 66 65 66 72 84 92 99 102 100 99 99 98 100 101 101 102 101 100 101 100 101 101 100 101 101 100 100 99 99 100 95 87 82 81 83 89 92 90 83 72 62 54 48 44 46 51 59 68 80
23 27 27 25 26 31 43 60 60 39 33 45 42 24 17 19 29 51 65 55 42 46 68 94 102 97 98 100 99 101 103 103 104 99 93 91 83 75 72 72 74 81 89 97 100 98 98 99 98 98 99 100 101 102 101 100 100 101 101 100 100 100 100 100 99 99 99 92 83 80 83 87 90 90 90 84 72 59 52 47 44 45 51 61 74 89
24 27 27 24 22 23 30 39 35 26 29 33 25 18 19 22 36 60 74 76 78 75 77 92 102 100 101 101 101 103 100 96 98 95 90 91 87 78 74 71 70 80 94 102 103 101 99 100 100 99 100 101 100 100 101 101 100 100 100 100 100 100 100 100 100 100 97 90 85 84 86 88 90 88 84 80 72 61 52 48 48 50 54 65 82 96
29 29 27 26 23 21 24 27 24 23 27 25 17 16 22 35 58 76 80 87 94 87 79 85 92 95 98 98 98 100 94 84 85 90 89 89 88 84 80 73 66 73 88 97 101 102 100 100 101 100 100 101 101 101 102 102 101 100 100 100 100 100 100 101 101 101 98 92 89 90 90 91 92 88 79 70 65 60 52 51 55 56 61 77 94 100
38 31 29 29 26 23 25 27 25 23 22 22 23 24 30 49 72 84 86 84 78 77 84 82 72 76 89 93 92 92 82 68 70 81 84 83 84 84 82 78 75 76 81 87 95 101 101 101 101 100 99 101 102 102 102 101 101 100 100 100 100 100 101 102 102 101 97 94 94 96 97 97 95 87 73 62 59 58 56 59 61 58 67 90 101 99
39 30 28 28 26 25 25 25 25 23 20 21 28 31 33 45 60 68 73 69 58 62 75 71 55 57 70 75 75 74 67 58 59 68 73 75 79 82 80 77 78 80 80 84 94 101 102 102 101 98 99 102 102 101 102 102 101 100 100 100 100 100 100 100 101 100 96 95 98 100 101 102 97 82 67 60 62 63 64 65 60 56 71 94 101 99
33 27 24 22 20 21 22 20 19 20 19 19 23 27 29 36 47 52 54 53 49 50 55 53 46 46 52 57 59 60 61 59 58 59 61 64 73 82 85 83 83 82 78 83 95 101 102 102 101 99 100 102 102 102 103 102 101 100 100 100 100 100 100 99 100 100 97 97 100 102 102 101 95 80 68 65 68 70 66 59 54 62 84 100 100 99
27 25 23 21 19 19 20 20 19 19 20 18 19 24 26 30 38 41 39 38 38 37 37 37 37 38 43 48 50 52 55 57 56 53 48 50 62 77 83 83 84 81 76 80 92 99 100 99 99 100 101 101 101 103 103 102 101 101 100 100 100 100 100 100 100 100 98 97 98 99 99 96 91 83 72 64 67 68 58 51 61 81 98 101 99 99
24 24 22 20 19 19 20 21 20 19 20 19 19 22 23 24 27 29 28 28 29 29 29 28 29 33 37 38 39 43 44 46 52 52 43 40 54 71 81 84 83 79 76 82 91 96 98 97 97 98 101 100 101 103 103 102 102 101 100 100 100 100 100 99 100 101 98 95 95 96 94 91 90 86 73 62 62 56 45 53 80 99 101 99 100 101
24 25 22 19 20 20 20 21 22 21 20 20 21 22 23 23 24 24 24 26 27 27 27 26 28 31 32 31 34 39 39 42 52 55 48 45 54 69 82 89 87 80 78 84 92 96 97 98 99 99 100 100 101 102 102 102 102 101 100 99 99 100 100 99 100 102 99 97 97 97 94 92 95 92 80 68 61 49 48 71 97 102 99 99 100 100
25 24 22 20 20 21 22 22 23 22 21 20 22 23 24 26 26 25 25 26 27 27 28 28 29 31 33 35 37 39 42 46 53 56 54 52 59 70 82 90 90 84 81 87 95 98 98 100 101 100 99 101 101 100 101 102 101 100 100 100 99 100 100 98 98 100 100 99 99 98 95 95 98 94 83 72 60 51 63 92 103 98 99 101 99 100
26 24 22 21 20 21 23 23 23 23 22 22 23 25 26 28 28 28 29 30 32 32 33 33 33 34 36 37 38 45 52 55 57 59 58 56 64 78 88 93 91 84 84 92 97 97 98 101 101 100 100 101 100 100 101 102 101 101 101 100 98 98 99 98 95 97 100 99 98 100 99 97 99 97 86 75 64 55 68 94 103 98 100 101 98 100
26 25 22 21 20 21 23 23 23 23 22 23 25 27 28 30 33 34 35 36 36 37 38 38 38 38 40 39 39 50 63 66 64 65 61 57 64 78 89 96 94 86 87 94 97 95 97 100 100 100 101 100 100 102 103 102 101 101 101 101 99 98 99 98 96 96 99 97 96 100 100 97 101 101 90 81 76 67 71 91 102 99 99 101 99 99
Wind_Speed
12 12 20 24 23 23 23 23 22 20 19 21 24 25 28 31 29 25 24 27 24 20 22 20 11 13 18 12 6 9 12 12 11 12 14 16 18 19 21 22 23 24 24 24 25 25 25 25 26 26 26 26 26 26 27 28 30 31 33 33 33 33 33 33 33 32 32 33 35 36 38 39 40 41 42 42 43 43 42 42 43 44 45 45 44 44
15 21 25 23 20 20 21 22 22 21 20 22 25 26 28 31 31 26 25 26 23 20 22 22 12 9 15 18 10 11 13 14 14 14 16 19 20 22 24 25 24 25 25 25 25 26 26 27 28 29 30 30 29 30 30 31 32 32 32 32 32 33 33 34 34 34 33 33 33 33 34 35 36 37 39 39 39 39 39 40 41 41 41 40 39 39
19 25 23 20 20 20 19 21 22 21 21 23 25 28 29 32 33 29 27 25 20 21 23 23 15 3 10 20 14 14 17 17 18 18 19 20 22 24 26 26 25 24 24 25 26 27 29 30 31 32 32 32 32 32 31 31 30 29 29 28 29 30 31 31 32 33 33 32 32 32 33 33 33 34 34 35 35 34 34 35 35 34 34 33 33 33
22 24 22 21 21 20 19 20 20 20 21 22 25 29 30 32 31 29 31 25 17 22 22 22 20 3 4 21 19 15 18 18 19 19 19 21 23 24 26 26 26 26 26 27 28 29 31 32 33 34 34 33 32 31 30 29 28 27 27 27 27 28 29 30 31 32 32 31 31 32 32 33 33 33 33 33 33 32 32 31 31 31 31 31 31 31
23 23 23 23 22 20 19 18 19 20 20 22 27 29 31 31 26 26 31 25 20 23 22 23 24 5 6 18 23 16 17 17 18 19 19 21 24 24 24 25 25 26 27 28 30 31 32 33 33 33 33 33 31 30 30 29 28 27 26 25 26 26 27 27 29 30 31 32 32 32 32 32 33 32 32 32 32 32 32 33 32 32 33 33 33 33
21 21 23 23 22 19 18 19 20 22 22 24 28 29 31 30 25 26 26 22 24 25 23 21 16 7 11 20 22 20 21 20 20 21 20 20 22 24 24 24 23 23 24 25 27 28 30 31 32 32 32 32 32 32 31 31 31 30 29 27 27 27 27 27 28 29 31 32 33 34 34 34 34 34 34 34 34 34 34 35 36 36 36 36 36 36
19 19 21 22 21 18 19 22 23 25 25 26 29 29 31 29 25 27 22 19 23 23 21 17 7 11 24 24 20 25 29 29 27 24 23 22 22 23 23 24 24 23 24 24 25 27 29 31 33 34 35 36 37 37 37 37 37 37 35 33 33 32 32 31 31 31 32 33 34 34 35 36 36 37 38 38 38 39 39 38 39 39 39 39 40 40
18 18 20 21 22 20 23 25 25 25 24 26 28 29 32 28 25 25 17 17 25 23 18 13 8 14 24 25 25 33 36 34 33 29 27 27 25 25 25 24 25 25 27 29 30 31 33 37 40 42 43 44 45 46 45 46 46 46 45 44 44 43 42 40 38 36 36 36 37 37 38 38 38 39 40 40 40 41 42 42 42 42 41 41 41 41
17 18 20 22 23 23 25 24 23 23 23 25 28 31 33 28 26 22 13 21 28 20 14 13 10 10 20 30 32 35 37 35 34 34 33 32 31 30 28 26 27 29 32 36 38 41 43 47 51 53 54 55 57 57 56 56 56 57 58 57 56 55 53 51 48 46 45 44 43 43 43 42 41 42 42 42 42 42 43 44 44 44 43 42 42 42
17 19 21 23 23 23 23 22 22 23 24 25 28 34 34 28 29 21 14 28 27 14 14 17 13 7 18 38 39 33 34 33 33 35 34 34 32 30 29 29 32 35 39 44 49 53 56 58 60 62 64 66 68 68 66 66 66 67 68 67 66 64 63 62 60 58 57 55 54 52 51 49 48 47 46 45 45 45 45 45 45 45 45 45 44 43
17 21 21 22 22 21 22 22 23 24 23 25 30 37 35 32 32 19 16 30 21 10 19 22 19 11 11 29 36 29 28 30 32 34 34 33 30 29 31 34 39 44 49 54 58 62 63 64 67 69 72 73 74 75 74 72 71 69 68 67 67 67 66 65 64 63 62 61 60 57 56 55 54 53 52 51 49 48 49 49 48 48 48 48 47 46
13 22 23 22 22 22 22 23 24 24 23 25 32 38 36 33 31 18 17 22 6 8 23 23 22 15 10 20 29 27 29 31 32 32 31 31 31 34 39 45 51 57 60 62 64 66 67 69 72 74 75 74 72 71 72 71 69 66 62 60 60 60 59 57 57 57 56 56 55 54 53 53 53 53 53 53 53 52 52 52 52 52 52 52 51 50
7 18 26 24 23 25 26 26 26 25 22 24 34 38 27 18 17 11 9 8 4 15 26 24 21 16 16 22 26 27 30 30 28 27 28 32 37 43 49 56 62 63 63 64 66 69 72 74 74 73 73 70 67 65 65 64 63 60 57 54 53 52 50 48 47 47 47 47 47 47 47 47 47 48 48 49 51 52 53 53 54 54 54 55 55 55
8 13 25 26 23 25 27 28 28 27 23 24 33 33 19 7 6 6 5 4 8 22 35 33 23 16 18 23 27 31 32 31 28 26 29 38 45 51 58 64 66 64 65 68 71 73 75 75 73 70 69 66 62 60 58 57 56 55 52 49 48 47 44 42 42 42 42 41 41 41 41 41 42 42 43 45 46 47 48 50 52 53 54 54 55 56
13 8 21 28 23 22 25 24 25 26 21 23 30 27 20 12 3 4 6 5 9 22 38 38 20 15 23 27 32 36 34 30 27 27 35 44 51 57 63 69 70 70 72 73 74 74 75 74 71 68 66 63 59 55 53 52 51 50 49 48 48 48 44 41 41 40 40 40 39 39 39 39 40 40 41 42 43 44 44 45 46 48 49 50 51 53
15 6 16 25 22 20 22 21 23 23 19 22 27 26 26 21 8 10 13 17 17 16 22 26 20 23 29 31 35 34 28 26 28 36 45 48 52 59 67 73 75 75 75 74 75 76 74 72 68 65 63 61 57 54 51 50 49 48 49 49 49 49 46 43 42 41 40 40 40 40 39 40 40 40 41 41 42 42 42 42 43 43 43 43 45 46
17 9 13 22 23 20 21 21 20 21 21 22 24 26 29 24 13 12 15 19 16 8 12 20 26 30 29 28 28 22 22 31 38 44 47 49 57 65 70 73 73 72 73 75 76 75 71 68 64 61 58 55 53 50 49 49 50 52 52 50 49 47 46 45 43 42 41 41 40 40 39 40 41 41 42 42 42 42 41 40 40 40 40 40 40 41
18 11 14 23 25 21 22 22 18 19 22 22 23 27 28 21 16 12 8 9 7 4 11 21 29 34 26 18 19 22 30 40 42 46 51 58 65 67 68 68 68 71 75 76 74 69 65 61 56 53 50 48 48 48 49 51 54 57 55 53 49 46 45 44 44 43 42 41 40 39 38 38 39 40 41 42 42 42 41 40 39 39 39 39 40 40
18 11 14 24 25 22 23 22 19 19 22 24 24 25 23 15 14 16 9 6 6 3 7 18 30 31 21 18 25 33 37 39 44 53 60 64 64 62 64 67 70 75 76 72 67 62 58 55 51 49 47 46 47 48 51 56 58 58 55 50 46 42 41 41 41 41 40 39 38 39 38 37 37 38 38 40 40 40 41 40 40 40 40 40 40 41
19 9 14 24 25 23 24 24 22 21 26 31 28 26 25 14 12 20 17 9 8 5 5 14 21 18 18 26 32 31 33 41 53 60 61 61 60 60 65 70 74 76 72 66 62 58 55 53 50 49 48 48 48 50 57 60 58 54 49 44 40 38 38 37 36 36 36 35 35 36 37 37 37 38 38 38 38 39 39 39 40 40 40 41 41 42
18 10 17 28 28 23 23 23 18 18 27 34 32 32 32 24 20 23 21 15 10 5 4 7 12 19 25 27 28 29 37 51 58 59 58 58 59 63 69 74 74 71 66 63 59 57 55 53 51 50 49 47 49 56 62 59 53 49 43 39 38 37 36 34 32 32 32 32 32 33 34 34 35 36 37 38 38 39 39 39 39 40 41 42 42 43
18 13 22 33 31 23 23 21 14 16 26 32 32 31 28 25 23 16 11 16 15 8 9 7 11 25 30 26 30 39 48 58 60 57 57 58 62 69 73 73 69 66 64 61 58 56 54 53 52 50 49 50 57 64 62 54 49 46 41 38 37 36 35 33 33 33 34 34 35 35 35 35 35 35 36 37 38 39 39 40 40 41 41 42 42 42
19 16 25 33 28 21 22 21 15 20 31 33 32 31 27 26 25 14 8 19 23 18 20 15 12 26 32 31 41 51 56 60 59 55 56 61 69 74 72 68 66 64 62 59 58 57 55 54 51 48 49 57 64 64 56 51 48 44 40 38 36 36 35 35 36 37 38 39 39 39 39 39 38 37 37 38 39 39 39 40 40 41 42 43 42 42
18 16 25 35 33 27 26 23 21 26 35 38 37 36 33 30 28 21 13 19 23 20 18 9 11 32 44 43 52 60 60 59 57 56 61 68 74 72 68 67 65 63 62 60 59 58 57 54 48 48 57 64 64 58 52 49 46 43 40 38 37 38 39 41 42 42 43 43 43 42 41 40 39 38 38 39 39 39 39 39 40 41 42 43 43 42
18 14 19 27 27 27 28 26 28 34 38 37 37 36 35 32 29 23 17 16 18 20 18 7 13 41 56 56 62 65 60 56 56 60 67 73 73 69 67 66 64 63 62 61 60 59 57 52 50 57 64 62 56 52 49 46 43 42 40 40 42 45 46 46 45 44 44 43 42 41 39 38 36 36 37 38 39 39 39 39 39 39 39 39 40 40
19 12 13 16 11 10 15 17 23 33 34 33 33 33 33 32 27 21 19 17 16 27 32 21 24 49 65 66 69 66 56 54 59 68 73 72 68 67 67 66 64 64 63 62 60 57 55 56 60 63 59 53 51 48 43 40 40 42 44 46 48 48 46 44 42 41 41 40 39 38 36 36 35 35 36 37 38 39 39 39 38 37 36 36 37 38
20 12 12 18 16 14 17 18 19 24 28 31 32 31 31 28 23 20 21 20 21 30 38 34 34 51 65 70 70 63 55 57 67 74 74 70 68 68 67 65 65 64 63 61 57 55 58 63 62 57 52 50 47 42 39 41 44 47 49 49 47 45 43 41 39 39 40 39 39 37 36 35 34 34 35 35 35 35 35 35 35 34 34 36 37 36
23 17 19 27 29 23 19 19 20 22 29 33 30 27 26 24 23 23 22 25 27 24 31 44 49 53 63 70 65 58 58 66 74 75 71 70 70 68 67 66 66 65 64 62 59 60 64 63 56 52 51 48 43 42 46 48 49 49 50 48 45 44 43 42 41 42 42 42 40 37 36 35 33 33 32 32 32 31 32 32 33 33 34 34 34 32
24 24 28 34 34 27 20 22 27 31 34 31 24 21 21 22 25 27 25 28 29 23 32 51 57 56 62 64 57 58 66 72 74 71 68 69 69 67 67 67 66 66 65 64 65 65 62 58 55 52 48 45 45 51 53 50 49 50 49 48 47 46 45 45 45 43 43 42 38 35 33 32 31 31 30 30 30 30 32 32 32 32 32 31 29 27
27 30 33 36 36 30 25 29 36 36 30 21 16 18 20 23 27 28 28 30 33 36 45 54 58 60 60 55 55 64 71 72 70 67 67 69 68 68 68 68 68 69 67 66 66 64 59 57 55 48 45 48 54 57 54 50 50 50 50 51 51 48 46 46 44 42 39 37 34 32 30 29 28 29 29 30 31 32 33 33 32 31 29 27 26 26
29 33 34 37 38 32 29 36 41 35 21 11 14 21 25 27 29 30 32 34 39 50 58 57 59 61 57 53 61 70 72 70 68 66 68 69 68 69 69 68 69 69 68 67 64 62 59 55 49 47 52 57 58 54 50 49 50 52 54 54 52 48 45 43 42 39 35 32 31 30 29 28 28 28 29 30 32 33 33 32 30 28 26 25 25 26
31 34 36 38 37 34 35 41 42 31 14 8 19 30 32 32 33 34 36 40 46 54 58 58 57 55 53 59 70 73 71 70 68 68 69 68 67 69 70 69 70 68 67 66 63 61 57 52 51 56 58 57 53 49 48 51 55 58 57 52 48 46 44 40 39 37 33 30 29 29 29 28 28 28 29 30 31 31 30 29 27 25 24 24 25 27
32 36 38 35 34 37 41 45 41 27 11 12 25 33 33 32 35 39 44 50 52 51 52 54 52 51 58 68 74 74 72 71 70 69 68 66 65 66 68 69 69 68 66 64 62 58 54 55 58 58 55 53 53 54 54 55 58 57 53 48 45 44 41 38 37 35 31 28 29 29 28 28 28 29 30 30 29 28 26 25 24 23 23 24 26 27
32 35 35 30 29 33 41 49 42 22 9 17 27 28 27 28 36 47 54 56 56 52 48 48 49 55 66 72 70 70 71 70 71 69 65 63 62 63 66 67 66 67 67 63 58 55 56 59 59 56 54 56 58 58 56 54 52 50 47 46 44 41 38 36 35 33 30 28 29 30 29 29 29 30 30 30 28 27 25 23 22 22 23 25 27 28
32 34 32 30 28 30 38 42 30 13 12 21 21 21 25 29 40 55 62 60 57 51 43 44 54 64 69 68 65 66 67 68 70 68 66 64 62 63 66 66 64 66 66 60 56 57 58 59 58 57 58 58 58 57 55 52 49 47 45 44 43 41 38 36 34 32 28 28 30 30 29 30 30 29 29 28 27 26 24 22 22 23 24 26 28 29
32 32 30 30 28 29 34 28 13 12 19 18 15 21 30 38 49 58 65 65 55 41 37 48 63 68 66 64 64 63 65 67 68 66 65 66 65 65 65 64 64 65 63 58 58 61 62 61 62 60 56 56 57 57 54 50 48 46 45 43 41 40 37 35 35 32 29 28 29 29 29 29 28 27 27 27 27 25 23 22 23 24 26 28 29 30
31 30 29 29 26 26 28 24 21 22 18 13 18 26 33 45 53 53 59 61 46 34 43 58 66 66 65 64 64 63 64 68 69 67 65 66 66 66 66 65 64 64 63 62 63 66 65 62 59 55 53 54 55 53 50 48 46 45 44 42 39 36 34 32 32 31 30 29 28 27 27 27 26 25 26 26 25 23 22 23 24 25 27 30 31 32
31 30 29 28 27 27 25 21 19 16 10 12 22 30 37 49 53 48 50 51 41 41 55 64 63 64 66 64 64 64 64 67 70 70 68 68 68 68 69 68 67 67 67 68 69 69 67 61 55 51 53 54 52 48 47 45 44 42 40 38 36 33 31 29 28 28 28 27 25 26 26 25 24 24 25 25 24 22 23 24 26 27 29 31 33 34
30 29 29 30 31 31 26 17 9 7 11 18 26 37 47 53 53 44 37 40 50 58 62 62 61 62 63 63 63 64 63 65 70 71 70 69 69 68 68 69 70 70 71 71 71 68 65 60 54 50 51 52 50 47 44 42 42 40 37 34 33 31 29 28 26 25 24 22 22 23 23 23 23 23 24 24 23 23 24 26 28 29 31 32 34 34
31 30 32 34 35 34 29 21 14 14 18 23 32 46 53 53 50 38 25 36 60 66 60 59 60 59 61 62 62 62 63 65 69 71 70 69 68 67 66 68 70 72 73 73 72 67 63 58 53 50 51 52 49 46 43 42 42 38 34 32 31 30 29 27 25 23 22 21 21 22 22 21 21 22 22 23 23 24 25 27 29 31 33 34 34 34
32 32 33 35 37 36 30 26 27 24 22 30 43 52 53 52 48 36 29 44 60 61 57 58 57 57 60 61 60 62 63 64 66 69 69 68 68 67 67 67 68 70 73 74 72 68 62 56 52 50 50 50 49 46 44 43 41 37 33 30 29 29 28 26 25 23 23 22 21 20 20 20 20 21 21 22 24 25 26 28 30 32 34 34 33 33
31 32 32 33 36 34 30 30 31 26 27 40 51 51 49 48 44 39 43 52 55 54 56 57 56 57 59 59 60 62 62 63 64 66 67 67 67 67 67 67 69 71 74 74 71 67 61 56 52 49 47 47 48 46 44 43 40 36 31 28 27 28 27 26 24 24 23 22 20 18 18 18 19 20 22 23 24 25 27 28 30 32 33 32 32 34
27 30 30 31 34 32 28 23 19 22 34 47 50 48 47 43 41 44 50 52 52 53 55 56 58 59 58 59 61 61 61 64 65 65 66 67 66 66 66 67 69 73 75 75 72 67 61 56 52 48 46 46 46 45 44 42 39 34 29 26 25 26 26 25 23 24 24 21 19 18 17 18 19 20 22 23 24 26 28 29 31 32 32 30 32 37
25 27 28 30 31 28 25 21 20 30 43 47 45 45 45 42 42 46 50 53 55 55 54 57 61 61 59 61 62 62 62 64 64 65 67 67 66 67 68 68 70 73 75 76 74 68 61 56 52 48 46 46 45 44 42 40 37 34 28 24 23 25 25 23 22 24 24 21 17 16 16 18 20 21 22 23 25 26 28 29 31 31 30 30 34 40
26 29 31 33 32 30 31 34 37 43 47 46 44 44 45 45 45 47 50 54 56 56 57 60 62 62 61 61 62 63 64 63 64 65 66 67 68 67 68 69 71 72 75 75 73 68 61 56 52 49 46 46 45 43 40 37 35 32 28 24 23 25 25 22 21 23 24 20 17 17 18 20 21 21 22 24 25 27 28 29 30 29 29 31 37 41
28 32 34 35 37 39 40 40 44 48 49 48 47 47 48 49 49 49 52 55 56 57 58 59 61 63 62 61 63 65 64 63 64 65 65 67 68 68 68 69 70 72 74 75 73 68 61 55 51 48 46 45 44 42 39 35 32 30 27 24 24 26 26 24 22 23 23 21 19 19 19 21 21 22 22 23 25 26 27 27 26 26 28 33 37 39
32 35 37 37 39 42 44 43 46 49 50 50 51 52 53 53 52 52 54 55 57 58 58 58 61 63 64 64 65 66 65 64 64 64 65 66 68 69 70 70 71 73 74 75 73 67 60 55 50 47 45 45 44 43 40 35 30 28 26 24 24 25 26 26 25 25 23 22 21 20 20 22 22 23 23 23 24 24 23 22 22 25 30 34 35 33
35 37 38 39 40 42 44 47 49 50 49 49 50 53 54 54 55 56 55 55 57 58 57 58 60 62 65 65 65 65 66 65 63 63 65 65 67 69 71 71 72 73 74 75 72 66 59 55 50 46 45 45 44 43 40 35 30 26 24 22 22 24 25 26 26 24 22 21 22 22 22 22 22 22 23 23 23 23 20 18 21 25 30 33 32 29
36 38 39 41 43 44 45 48 52 54 53 51 51 52 53 53 55 56 56 56 56 57 58 59 59 61 64 65 64 65 66 64 63 63 63 64 67 69 70 71 72 73 75 75 72 65 60 55 49 46 44 44 43 42 39 35 31 26 23 22 21 22 24 24 24 22 20 20 21 22 22 21 20 22 23 21 22 22 17 16 21 26 29 31 29 27
38 40 41 43 45 46 46 47 50 53 54 53 53 53 52 52 53 55 56 56 56 56 58 60 61 62 64 64 63 64 64 64 63 63 63 64 66 68 70 72 72 73 75 75 71 65 60 54 48 45 44 43 42 41 38 35 31 26 23 21 20 20 21 21 21 20 19 19 19 20 21 19 19 23 25 22 22 21 14 13 20 24 26 27 26 26
38 40 41 42 44 45 44 45 46 48 51 52 52 52 52 51 52 54 54 54 55 56 57 60 63 64 65 64 63 62 63 63 63 63 63 63 64 67 69 70 71 73 75 74 70 65 60 53 48 44 43 43 42 40 38 35 31 26 23 21 19 19 19 19 20 19 19 18 17 17 18 17 20 25 25 22 22 21 15 13 18 20 23 25 23 23
Wind_Direction
39 40 43 39 34 32 30 28 26 23 22 16 13 12 5 1 1 1 360 356 352 354 359 3 27 35 17 2 318 296 286 275 272 276 278 274 273 276 274 276 277 278 279 278 277 277 275 273 272 274 274 274 275 275 276 278 280 282 284 286 287 289 289 288 285 281 276 271 267 265 264 264 263 262 261 260 260 260 260 260 260 261 261 263 264 265
35 44 48 41 35 31 27 25 23 22 21 18 12 7 4 360 356 359 1 355 351 351 351 353 14 48 8 348 314 293 289 275 273 275 276 272 269 271 270 270 272 272 273 273 272 273 272 270 270 270 271 270 269 268 269 271 275 279 281 284 286 287 288 287 286 284 282 278 273 269 267 266 265 263 261 260 259 259 259 259 259 259 260 261 262 263
40 47 47 37 32 29 26 23 20 20 18 16 11 4 4 0 354 355 359 356 349 347 344 345 358 43 350 342 316 306 308 283 281 285 277 272 267 266 267 267 269 270 270 270 270 270 271 271 270 270 271 271 271 271 271 272 274 276 278 280 282 284 284 284 284 283 282 280 277 274 270 267 266 266 265 263 261 259 258 258 258 258 259 259 259 260
49 49 41 34 30 24 23 21 18 17 15 13 10 4 2 360 354 350 352 353 349 345 342 340 345 302 302 336 317 309 321 299 288 290 280 273 269 267 269 270 272 273 273 272 272 273 273 274 275 275 276 276 277 277 277 277 277 277 277 278 279 279 279 278 279 278 277 276 274 272 271 269 267 266 266 266 266 265 262 260 258 259 259 259 259 260
51 47 37 32 26 20 19 17 15 15 14 12 9 4 360 358 355 347 344 347 347 347 344 338 339 295 229 323 316 308 323 307 287 288 285 276 271 271 272 273 277 279 281 280 280 280 279 281 283 284 284 284 284 284 285 287 287 288 287 287 285 281 278 276 274 273 271 270 268 266 265 265 265 264 264 263 264 264 264 264 263 263 263 263 263 264
46 41 34 28 21 18 16 12 14 14 13 11 7 2 357 354 353 349 343 343 345 346 343 339 340 304 282 310 312 309 317 309 290 283 282 277 271 270 271 272 275 278 284 287 289 289 289 290 291 292 292 291 291 291 293 295 297 299 298 296 294 289 285 282 279 277 274 271 270 267 263 261 260 260 260 260 260 260 260 261 263 265 266 267 267 267
40 35 30 24 19 18 16 14 15 12 9 8 3 358 355 352 351 349 344 341 342 337 334 331 313 301 306 311 313 312 315 313 303 287 279 281 281 279 278 279 283 286 290 293 296 298 300 302 302 301 301 301 300 299 300 301 302 302 300 298 299 296 293 289 286 284 280 277 276 274 272 269 265 261 258 258 258 258 258 258 259 261 262 264 265 266
37 33 26 22 19 18 16 15 13 9 6 4 359 354 352 350 350 350 343 340 337 328 330 325 286 291 301 307 315 314 313 310 304 294 285 287 290 291 291 291 296 302 306 307 307 309 311 313 313 313 312 311 309 306 304 304 304 303 302 301 301 300 299 296 292 289 287 284 281 280 279 277 276 272 267 263 260 258 258 258 258 258 258 259 260 262
36 29 25 21 20 20 17 13 10 6 4 0 355 352 351 350 351 353 343 340 339 327 328 328 305 291 296 307 314 311 309 305 302 299 296 295 296 297 297 298 305 311 316 318 317 316 316 316 316 317 317 316 314 311 307 306 305 305 305 304 302 300 298 297 294 292 291 289 287 285 283 281 279 279 276 272 269 265 262 260 258 257 256 256 257 258
35 27 25 22 21 22 16 11 8 5 1 357 354 350 351 352 352 356 349 344 342 318 319 332 325 301 297 306 309 308 305 302 302 301 298 299 299 302 305 308 312 315 316 317 318 318 318 319 319 319 319 318 317 314 311 309 308 308 307 305 303 301 299 297 295 294 293 292 291 289 288 285 283 281 279 277 275 274 271 267 263 261 258 256 255 255
36 27 25 21 21 20 14 12 8 4 359 355 353 350 352 354 353 356 347 343 343 307 319 328 318 303 291 303 305 305 304 301 300 298 296 300 304 310 316 317 317 317 317 318 318 319 321 323 325 324 322 320 319 318 315 314 313 312 310 308 306 303 302 301 299 298 297 296 296 295 294 292 289 286 284 282 280 278 277 275 272 269 265 262 258 256
37 26 24 20 16 15 12 11 9 5 359 353 354 354 355 354 351 349 342 344 346 288 314 318 313 300 258 286 297 297 299 298 296 296 299 305 312 318 320 321 322 323 324 324 324 325 325 327 327 326 323 322 321 319 317 316 316 315 314 312 309 307 306 305 303 302 301 299 299 298 297 295 294 292 289 287 285 282 280 278 276 274 272 270 266 263
37 23 22 19 12 9 7 5 7 6 0 354 356 2 5 356 350 345 334 336 264 294 314 317 315 299 266 283 297 298 300 299 296 301 312 319 322 322 323 325 326 328 330 330 330 329 329 328 328 326 324 323 322 320 318 316 315 315 314 313 310 308 306 304 303 302 300 299 297 295 294 293 292 291 289 288 286 285 283 281 279 277 275 273 272 270
27 22 18 17 11 8 3 1 3 2 359 357 360 7 16 7 349 332 311 313 296 307 316 317 313 304 300 308 312 310 308 306 304 311 320 323 324 325 326 328 329 330 331 331 330 329 328 328 327 325 323 322 322 320 318 316 314 313 313 311 308 305 303 302 301 300 298 296 293 290 288 287 287 286 286 285 285 284 283 281 280 279 276 274 272 271
15 21 15 14 11 5 2 2 1 358 356 356 358 4 3 355 337 278 292 296 293 302 311 315 312 307 314 316 314 312 309 305 307 312 317 320 323 325 325 325 326 326 326 326 326 326 325 325 324 323 322 321 321 320 318 316 314 313 312 310 308 306 303 300 300 300 299 298 294 289 285 283 282 282 282 283 283 283 281 280 279 277 276 274 271 269
14 22 15 12 7 1 2 3 358 357 357 352 353 355 350 344 310 269 284 289 291 294 303 308 304 302 309 310 310 312 309 308 313 315 316 319 320 319 318 319 320 321 322 322 323 323 323 323 322 322 321 321 321 320 319 318 317 316 313 310 308 305 303 301 300 300 299 299 297 293 289 285 283 283 282 282 282 282 281 280 279 277 276 275 274 271
11 12 14 8 5 1 360 2 359 357 357 351 349 349 345 340 319 289 285 293 300 291 291 301 303 308 313 313 315 318 314 313 313 311 312 313 313 314 316 319 321 322 322 322 323 323 323 322 322 322 322 322 322 322 322 322 322 320 317 313 309 305 302 301 300 300 300 300 298 295 292 290 287 286 285 285 283 282 281 279 278 278 278 278 278 277
3 2 9 5 4 1 356 358 358 356 357 355 347 344 343 341 333 319 292 298 315 278 287 301 305 310 316 316 319 319 312 310 310 311 313 314 316 319 322 323 323 323 322 323 324 324 324 324 325 325 325 325 325 326 326 326 323 321 319 316 312 307 303 300 299 300 300 300 299 296 293 289 287 285 284 285 284 283 281 279 278 277 277 277 278 278
1 356 2 3 2 358 354 354 355 356 358 355 345 341 345 342 325 324 319 304 315 287 284 301 304 307 311 312 315 314 313 318 322 322 322 321 322 323 323 323 322 322 323 325 326 327 327 327 328 328 328 328 329 329 327 324 322 320 318 316 313 308 303 300 299 299 299 299 297 296 294 291 288 286 285 284 283 282 280 278 277 276 276 275 275 275
2 346 347 358 0 356 354 353 354 354 351 350 346 344 348 347 320 322 320 296 294 293 287 303 304 303 309 313 313 313 318 326 327 325 325 323 322 322 322 322 322 324 326 328 329 329 328 328 328 328 330 330 329 326 324 322 321 319 316 313 310 308 307 306 306 304 301 297 295 293 292 291 289 287 286 285 284 282 280 278 277 276 275 274 273 273
3 343 335 349 0 3 357 353 353 346 345 347 347 344 343 343 336 327 317 301 293 280 283 302 296 297 308 315 314 315 321 324 326 326 324 322 321 321 322 322 324 327 329 330 330 330 329 329 329 329 330 328 323 322 322 322 320 318 315 311 310 311 313 316 315 311 306 301 297 295 293 291 288 284 282 282 282 281 280 279 278 276 275 274 272 272
1 347 338 344 355 2 355 353 349 340 344 345 343 341 340 339 339 335 316 309 308 293 290 292 285 297 310 321 319 319 322 325 326 325 321 320 321 322 323 325 328 330 331 331 331 330 331 331 331 331 329 323 321 322 322 321 321 320 317 313 314 317 318 318 316 313 311 308 304 302 300 297 293 288 283 279 278 277 277 277 277 277 276 275 273 273
359 353 345 344 350 358 356 355 350 341 344 343 340 340 339 337 339 340 318 311 312 307 301 296 282 295 310 322 320 320 324 325 324 323 320 321 322 324 327 330 332 333 332 332 331 331 332 333 332 329 324 320 320 321 321 322 323 323 320 318 318 319 319 316 314 313 312 309 307 305 302 300 297 293 288 282 278 277 277 278 279 279 280 279 278 278
2 357 351 348 349 354 355 353 348 344 343 341 338 336 333 331 332 330 319 309 307 306 308 309 284 298 312 321 319 321 326 324 322 322 321 323 325 328 331 333 334 334 333 332 332 331 333 334 332 325 320 320 321 322 324 326 326 324 322 322 321 320 318 316 314 312 310 308 307 306 303 301 298 294 290 285 282 280 280 281 281 282 283 282 281 280
4 2 360 355 351 351 352 348 342 340 340 336 331 328 326 325 324 324 327 322 311 307 317 322 282 301 314 320 320 324 326 323 321 322 323 326 329 332 334 335 335 334 334 334 333 333 335 334 326 320 319 321 323 327 329 328 325 323 322 322 321 320 319 318 315 313 311 309 308 307 305 303 300 296 292 288 286 285 285 286 287 287 286 284 281 279
3 8 10 5 353 335 331 326 325 327 326 326 324 321 320 320 319 325 334 330 315 311 313 302 288 304 315 320 323 325 325 322 322 324 327 330 332 335 336 336 335 335 335 335 335 336 334 327 321 319 322 326 330 331 328 324 321 320 319 319 319 320 320 321 319 317 316 314 310 307 305 304 302 299 296 293 292 292 292 293 292 290 288 286 284 281
3 6 2 356 346 326 313 311 317 317 316 320 320 317 317 316 314 326 336 328 317 311 307 304 305 310 315 321 324 325 324 323 324 327 330 333 335 337 337 336 336 336 335 336 336 333 326 322 322 324 329 333 332 327 322 318 318 318 317 318 318 320 322 321 320 319 319 317 312 307 305 304 303 301 299 298 298 297 296 294 292 290 289 289 288 285
360 358 352 349 347 343 332 326 328 324 321 322 320 318 320 315 313 325 334 330 325 312 301 312 319 315 315 321 324 323 323 325 327 330 332 334 336 338 337 337 337 336 336 336 332 327 325 326 329 332 335 333 325 319 317 315 315 316 317 318 319 319 320 320 317 316 318 317 313 308 306 305 305 304 304 303 302 300 299 297 295 294 293 291 289 286
357 355 349 346 348 350 345 338 337 334 329 325 324 327 325 315 317 327 335 333 328 313 304 316 320 316 317 322 323 321 323 326 329 332 333 335 338 339 338 338 337 337 336 332 328 328 331 334 335 335 332 325 318 318 318 315 316 318 318 319 318 317 317 316 314 314 316 316 315 312 310 309 308 308 307 306 305 304 304 303 300 298 296 292 289 286
355 352 347 345 346 350 349 343 341 338 334 330 336 338 328 320 322 327 333 334 327 317 316 319 319 317 321 323 320 320 323 327 331 334 335 338 340 340 339 338 337 336 333 329 329 332 335 337 336 332 324 318 318 319 319 317 318 318 319 319 317 315 315 314 313 314 316 316 315 314 312 310 309 309 308 308 308 307 307 304 301 300 296 290 288 288
352 350 348 344 344 350 350 344 344 344 340 342 350 341 330 326 326 327 332 335 330 324 323 322 320 320 323 322 319 321 325 330 334 336 337 340 341 340 340 338 336 334 332 332 333 335 337 337 332 324 319 319 321 321 320 319 317 317 318 318 315 315 316 314 313 314 315 315 315 314 311 308 307 306 306 308 309 308 307 304 301 299 293 288 287 288
351 349 348 346 344 349 350 345 347 352 350 346 348 341 334 328 324 326 331 332 330 326 324 323 321 320 321 321 322 326 330 333 336 337 338 341 342 341 340 337 335 334 334 334 335 336 337 333 324 320 321 323 325 325 321 317 315 316 318 318 316 316 315 314 314 314 313 313 313 311 309 308 305 304 305 308 309 309 307 304 301 296 290 287 288 289
351 349 349 349 343 345 349 347 349 358 4 349 343 336 328 323 321 322 326 327 328 327 323 321 319 318 320 324 327 330 332 335 336 337 338 341 342 340 337 335 335 336 336 335 336 336 331 324 322 323 324 326 325 323 320 317 316 317 319 319 319 317 315 314 315 314 311 311 312 310 309 307 305 305 308 310 311 311 309 304 299 295 292 291 292 293
351 349 351 352 344 343 347 348 352 8 10 336 331 322 317 322 324 323 324 326 328 328 325 320 317 319 324 328 331 332 333 334 334 335 339 341 339 336 335 335 336 337 337 336 334 330 324 322 324 326 326 327 326 324 324 323 320 319 319 320 320 319 317 314 314 315 313 311 311 310 307 305 305 307 309 311 311 310 307 302 297 296 295 295 296 295
350 351 354 355 347 343 346 350 358 9 336 326 321 314 317 323 326 325 324 326 330 330 326 321 320 324 328 330 332 333 333 333 332 334 341 342 338 336 336 337 338 338 337 334 329 326 326 328 329 329 329 329 328 327 327 326 323 322 322 322 322 321 318 314 312 314 313 311 310 309 306 304 304 307 310 311 308 306 304 302 300 299 299 297 296 295
351 355 358 356 351 347 348 350 350 329 330 334 323 321 327 328 330 329 325 326 333 332 324 323 325 327 330 331 333 334 333 332 332 335 342 343 340 341 341 340 339 337 334 331 328 330 333 333 331 330 331 330 329 328 328 326 325 324 323 324 324 321 319 313 309 308 307 306 307 307 304 303 304 308 311 309 305 304 306 306 304 303 301 299 297 297
354 357 359 358 355 352 345 336 330 332 340 345 327 328 332 330 332 331 322 323 335 334 326 328 328 329 332 333 334 334 334 333 334 337 342 342 342 344 344 343 341 337 334 335 335 335 334 332 332 331 331 331 329 328 327 325 324 323 323 326 326 324 321 315 310 307 303 301 303 304 303 303 306 309 311 310 308 309 311 309 306 304 302 300 300 299
355 356 359 358 355 355 347 335 335 339 336 330 324 326 329 328 330 328 317 320 335 335 329 332 332 331 333 334 333 335 336 334 334 337 340 340 341 344 346 346 345 341 340 341 340 336 334 334 335 334 332 332 330 329 327 325 323 324 325 328 329 327 325 321 317 313 307 303 303 303 302 304 307 310 314 316 316 313 311 308 305 304 303 302 303 303
355 355 356 357 358 359 352 337 325 311 312 318 319 325 330 329 330 329 318 322 335 336 333 334 334 332 334 334 334 336 336 332 331 334 338 339 340 343 345 345 346 345 345 344 340 338 336 336 336 335 333 332 331 331 328 325 326 328 329 330 331 329 328 326 324 322 318 313 310 306 305 307 308 312 318 320 318 314 310 308 306 306 305 305 306 306
354 354 354 356 357 355 350 338 323 318 319 317 321 330 334 332 334 337 329 326 332 334 334 335 333 333 334 334 335 337 335 332 330 333 337 338 339 341 343 344 346 346 346 344 341 339 337 336 336 335 334 333 334 334 331 328 329 330 330 331 330 329 329 327 326 325 322 317 314 310 309 310 308 313 319 318 315 314 312 310 309 308 308 308 308 309
354 353 353 354 352 350 349 338 326 327 331 328 330 334 335 336 341 343 329 322 326 330 335 336 334 335 336 336 336 335 335 334 333 334 337 338 338 339 341 343 345 346 345 343 341 339 336 336 336 335 334 335 336 336 334 331 331 330 330 330 330 330 329 327 326 327 324 319 317 313 310 310 310 314 317 315 314 314 313 313 312 310 310 312 314 316
353 351 349 350 349 347 344 335 329 332 336 333 334 337 339 340 339 332 322 321 325 331 335 337 336 337 337 337 336 335 335 337 337 336 337 338 338 339 340 342 344 346 345 343 341 339 337 336 336 334 335 337 338 337 335 333 331 331 329 329 330 329 328 327 329 329 326 324 322 318 315 314 313 314 314 313 314 315 315 315 313 312 315 318 318 321
351 350 347 346 346 343 338 335 331 325 328 332 334 337 340 338 330 324 323 325 330 334 336 336 337 338 338 336 335 335 336 338 339 339 339 338 338 339 340 343 345 345 344 343 342 341 338 336 335 335 337 339 337 336 335 333 332 331 327 326 328 326 325 328 332 330 328 328 327 324 321 316 312 312 314 315 318 318 317 315 313 316 320 319 319 324
350 350 346 344 344 338 328 327 326 322 328 335 336 334 336 336 332 330 329 330 334 339 338 336 337 338 338 336 334 334 336 338 339 340 340 340 340 340 341 343 345 344 343 343 343 341 339 337 336 337 339 339 337 336 337 335 332 329 325 323 322 320 320 328 333 330 330 333 334 329 321 314 313 315 317 320 322 320 317 316 317 321 324 322 325 332
349 348 345 342 340 334 328 331 333 332 334 339 339 336 337 339 338 336 333 333 337 339 338 337 337 337 337 336 334 334 336 337 338 339 340 341 342 342 342 344 344 344 343 343 343 341 339 337 336 337 338 338 336 336 338 337 332 327 324 321 317 315 316 322 327 327 329 334 338 333 323 318 319 321 323 324 323 320 319 320 324 329 332 333 336 339
347 346 344 342 338 337 337 338 338 337 339 342 342 342 342 341 339 337 336 336 337 338 338 338 337 338 338 337 336 336 337 338 338 338 339 341 342 343 343 343 343 343 343 343 343 342 340 338 337 336 336 336 336 336 338 339 334 327 324 320 315 314 315 314 314 317 321 327 333 332 326 322 324 326 326 324 321 319 321 326 331 336 340 343 344 343
348 346 343 341 338 337 339 341 339 338 342 345 345 345 345 343 340 340 340 338 337 337 337 337 337 338 338 338 338 337 337 338 338 337 339 341 343 343 344 344 343 343 343 343 343 342 341 338 337 336 336 336 337 337 338 340 336 328 323 318 312 311 313 313 312 313 315 321 328 330 328 327 329 330 327 323 320 320 325 332 339 343 346 350 349 347
347 345 341 339 337 337 338 340 339 338 342 346 346 344 345 343 340 341 342 340 338 338 338 337 338 338 337 339 339 337 337 339 340 338 340 342 343 344 344 343 343 343 343 344 343 343 341 339 338 337 337 337 337 337 338 340 337 330 323 319 313 309 308 310 314 317 319 322 326 328 330 333 334 331 327 325 325 328 335 344 348 348 351 353 354 354
344 343 341 338 337 339 340 341 340 340 344 348 346 344 344 343 340 341 343 341 340 340 339 339 339 338 338 339 340 338 338 340 341 340 341 343 344 344 344 343 343 343 343 344 344 344 342 341 340 339 338 337 337 337 339 341 339 332 323 318 315 312 310 309 313 318 321 322 324 328 334 341 345 339 333 331 332 335 343 354 355 352 352 354 359 4
343 343 342 338 337 339 341 341 339 339 341 344 345 344 344 343 339 340 342 342 341 341 341 340 339 338 338 340 341 340 340 341 342 342 342 343 345 345 344 343 343 344 344 345 344 344 343 343 342 340 339 338 337 339 341 343 341 336 327 319 313 313 315 313 314 319 322 321 325 334 341 351 358 349 340 338 338 336 344 5 3 355 352 356 6 12
342 341 341 337 336 338 339 340 339 338 338 341 343 343 344 343 340 341 342 342 342 343 342 340 339 339 339 341 343 343 342 343 343 343 343 344 345 345 344 344 344 344 345 345 345 344 344 344 343 342 341 339 339 341 343 344 343 340 334 325 316 315 319 318 317 321 324 324 331 344 352 359 359 348 341 343 342 336 341 6 8 358 353 360 11 12